This is the latest recevied weather packets stored in our database for station/object KB0Y. If no packets are shown the sender has not sent any weather packets the latest 10 day(s).
| Time | Temp. | Humidity | Pressure | Rain* | Wind** | Luminosity | Snow |
|---|---|---|---|---|---|---|---|
| 1777750785 | 14.44° C | 99% | 1015.6 hPa | 0 mm | - | 184 W/m² | - |
| 1777750483 | 14.44° C | 99% | 1015.6 hPa | 0 mm | - | 128 W/m² | - |
| 1777750178 | 14.44° C | 99% | 1015.6 hPa | 0 mm | - | 85 W/m² | - |
| 1777749875 | 14.44° C | 99% | 1015.9 hPa | 0 mm | - | 125 W/m² | - |
| 1777749572 | 14.44° C | 99% | 1015.6 hPa | 0 mm | - | 138 W/m² | - |
| 1777749270 | 14.44° C | 99% | 1015.6 hPa | 0 mm | - | 99 W/m² | - |
| 1777748967 | 14.44° C | 99% | 1015.6 hPa | 0 mm | - | 104 W/m² | - |
| 1777748664 | 14.44° C | 99% | 1015.6 hPa | 0 mm | - | 121 W/m² | - |
| 1777748360 | 14.44° C | 99% | 1015.6 hPa | 0 mm | - | 124 W/m² | - |
| 1777748056 | 14.44° C | 99% | 1015.6 hPa | 0 mm | - | 84 W/m² | - |
| 1777747753 | 14.44° C | 99% | 1015.6 hPa | 0 mm | - | 124 W/m² | - |
| 1777747449 | 14.44° C | 99% | 1015.6 hPa | 0 mm | - | 121 W/m² | - |
| 1777747145 | 14.44° C | 99% | 1015.6 hPa | 0 mm | - | 116 W/m² | - |
| 1777746841 | 14.44° C | 99% | 1015.2 hPa | 0 mm | - | 95 W/m² | - |
| 1777746537 | 14.44° C | 99% | 1015.6 hPa | 0 mm | - | 108 W/m² | - |
| 1777746232 | 14.44° C | 99% | 1015.6 hPa | 0 mm | - | 128 W/m² | - |
| 1777745928 | 14.44° C | 99% | 1015.6 hPa | 0 mm | - | 91 W/m² | - |
| 1777745628 | 14.44° C | 99% | 1015.6 hPa | 0 mm | - | 99 W/m² | - |
| 1777745325 | 14.44° C | 99% | 1015.6 hPa | 0 mm | - | 82 W/m² | - |
| 1777745022 | 14.44° C | 99% | 1015.6 hPa | 0 mm | - | 58 W/m² | - |
| 1777744718 | 14.44° C | 99% | 1015.2 hPa | 0 mm | - | 87 W/m² | - |
| 1777744412 | 14.44° C | 99% | 1015.2 hPa | 1.78 mm | - | 130 W/m² | - |
| 1777744110 | 14.44° C | 99% | 1014.5 hPa | 1.78 mm | - | 190 W/m² | - |
| 1777743807 | 14.44° C | 99% | 1014.9 hPa | 0 mm | - | 231 W/m² | - |
| 1777743503 | 14.44° C | 99% | 1015.2 hPa | 0 mm | - | 165 W/m² | - |
* Rain latest hour (hover to see other rain measurements)
** Current wind speed in m/s (hover to see current wind gust speed)